Cloud_Cover
92 80 100 79 67 88 98 98 80 100 100 100 99 88 100 97 50 33 67 14 5 10 7 85 40 10 12 0 0 41 14 0 0 0 0 0 0 6 0 0 0 4 0
98 93 100 100 97 100 98 100 74 87 100 100 76 93 100 57 100 100 96 100 21 8 11 0 0 0 0 0 0 6 1 0 0 0 0 0 73 84 8 1 5 96 1
98 100 100 100 88 100 100 100 100 100 100 100 100 95 44 18 54 30 60 97 99 98 39 6 7 51 5 0 0 4 0 2 0 0 0 0 31 18 0 3 0 52 2
100 100 70 100 95 77 100 100 96 100 100 100 100 99 83 76 41 100 70 25 75 45 92 19 45 19 5 5 5 12 1 1 1 2 0 0 0 11 16 0 69 15 1
100 100 100 100 100 100 100 46 100 96 100 100 100 100 100 100 100 83 32 5 19 8 6 15 14 5 5 5 4 8 0 0 0 0 0 2 36 11 79 5 0 0 75
94 100 100 100 100 90 100 100 100 100 100 100 100 100 100 97 37 53 100 100 99 70 5 5 4 5 4 5 5 1 0 0 0 0 0 0 1 96 34 0 7 46 9
0 0 2 58 100 100 100 100 100 100 100 94 100 100 100 100 100 63 46 29 32 33 25 8 2 8 2 5 1 0 0 0 0 0 2 0 0 38 25 1 11 100 81
0 0 0 6 61 100 100 100 100 100 100 100 100 100 100 100 38 54 100 100 100 100 75 100 88 48 21 87 6 2 3 0 0 0 0 0 45 56 12 0 20 49 90
0 0 0 21 0 0 0 0 21 100 100 78 26 90 5 11 64 92 89 100 94 96 99 99 99 10 94 94 69 77 6 4 0 0 0 0 6 100 0 0 2 33 70
0 0 0 15 21 2 0 0 0 0 6 80 72 98 100 100 100 59 17 10 4 4 3 5 8 2 7 1 0 0 0 0 0 0 0 0 82 100 73 24 0 7 86
0 0 2 25 25 10 0 0 0 0 0 0 1 4 7 88 79 9 0 0 13 1 0 0 1 3 0 0 0 0 0 0 0 0 0 0 0 20 0 0 1 57 100
0 0 0 6 14 2 0 2 11 0 2 4 0 1 9 5 5 0 0 0 0 0 0 2 0 0 0 0 0 0 24 100 0 0 0 0 0 3 4 0 0 30 52
0 0 0 0 0 0 0 5 56 42 33 20 11 15 19 6 91 16 31 13 6 0 8 0 2 30 2 2 4 80 4 11 75 3 0 0 1 2 0 0 0 94 63
0 0 0 0 0 0 0 0 2 38 38 37 29 8 15 71 19 99 16 20 22 23 27 95 65 81 40 2 2 0 34 66 100 70 5 5 5 5 5 0 5 91 100
0 0 0 0 0 0 0 0 0 0 0 4 0 0 4 5 78 98 93 80 52 84 100 100 100 6 5 5 12 18 86 62 99 74 55 100 28 88 88 5 2 68 100
0 0 0 0 0 0 2 7 1 0 0 63 4 18 92 8 91 100 100 100 100 81 100 89 100 64 12 24 30 49 31 98 100 99 83 95 89 92 5 6 6 13 88
0 0 0 0 0 32 55 89 72 4 73 96 90 100 100 98 94 43 99 100 100 72 26 73 47 46 72 71 46 95 96 90 75 100 90 58 66 5 5 12 16 6 99
0 0 0 0 0 0 0 90 52 30 30 52 100 100 100 89 9 5 23 89 84 100 90 100 94 56 51 96 100 100 100 100 100 100 58 96 100 13 3 1 9 15 99
0 0 0 0 0 0 0 0 7 29 77 81 97 99 98 74 10 97 55 100 100 100 100 100 84 80 62 100 100 100 100 95 99 100 100 82 83 97 63 60 62 50 33
0 0 0 0 0 0 0 0 0 0 0 0 0 2 0 4 56 4 80 100 100 100 100 100 100 71 96 100 100 100 100 100 92 100 100 100 100 95 100 99 75 8 24
0 0 0 0 0 0 0 0 3 5 0 0 0 0 0 0 5 33 85 100 100 100 96 100 100 100 100 81 100 100 94 100 27 27 100 100 100 100 97 100 97 52 50
6 10 0 0 0 0 0 0 10 54 16 0 0 0 0 1 1 4 9 88 100 100 100 100 100 100 100 100 100 100 100 85 18 56 96 100 100 100 100 100 100 100 100
77 100 4 0 2 0 0 0 14 72 88 8 1 12 0 12 0 17 38 98 100 100 100 100 100 100 100 100 66 86 87 95 50 87 100 100 100 100 100 100 90 93 99
31 8 7 60 16 5 2 0 77 100 100 100 99 8 22 24 0 38 15 65 100 100 100 100 100 100 100 100 100 99 98 94 95 88 100 100 100 100 100 100 100 100 100
5 44 90 68 76 99 4 0 16 100 100 100 100 97 54 14 0 87 100 100 100 100 100 100 100 100 100 100 100 99 97 51 6 5 98 100 100 100 100 100 100 100 100
72 92 78 50 38 86 24 0 0 32 93 100 100 100 100 89 12 99 100 100 100 100 100 100 100 100 100 100 100 100 98 80 71 66 64 100 100 100 100 100 100 100 100